contact:dominique.lefevre@mio.osupytheas.fr, maurice.libes@osupytheas.fr
Project:EMSO Ligure-ouest http://www.emso-fr.org/EMSO-France
Sensor Aquadopp, line 13 Serial AQD14315 
DOI : "https://doi.org/10.17882/74513; https://doi.org/10.17882/83244" 
Title:EMSO Ligure Ouest : Data ligne ALBATROSS capteur AQUADOPP - deploiement 2021
Id,Date,Profondeur,Latitude,Longitude,X_East,Y_North,Z_Up,Amplitude_X,Amplitude_Y,Amplitude_Z,Batterie,SoundSpeed,Heading,Pitch,Roll,Pressure,Temperature,Speed,Direction
, , m, degrees North, degrees East, m.s-1, m.s-1,m.s-1, 1, 1, 1, Volt, m.s-1, degree, degree, degree, dbar, degree_C, m.s-1, degree
07,2022-02-03T21:30:00,1500.0,42.79,6.0312,-0.066,0.036,0.002,52.0,52.0,53.0,12.3,1504.1,258.7,-1.2,0.0,1473.056,13.12,0.075,298.6
07,2022-02-03T22:00:00,1500.0,42.79,6.0312,-0.089,0.009,0.008,53.0,53.0,53.0,12.3,1504.1,257.6,-1.6,-0.1,1473.106,13.12,0.089,275.8
07,2022-02-03T22:30:00,1500.0,42.79,6.0312,-0.081,0.035,0.0,53.0,56.0,53.0,12.4,1504.0,262.3,-0.8,-0.6,1473.086,13.11,0.088,293.4
07,2022-02-03T23:00:00,1500.0,42.79,6.0312,-0.081,0.031,0.004,50.0,52.0,50.0,12.3,1504.0,255.2,-1.6,0.1,1473.105,13.11,0.086,290.9
07,2022-02-03T23:30:00,1500.0,42.79,6.0312,-0.088,0.021,-0.006,52.0,52.0,50.0,12.3,1504.0,257.0,-0.9,-0.4,1473.096,13.11,0.09,283.4
07,2022-02-04T00:00:00,1500.0,42.79,6.0312,-0.07,0.044,-0.004,56.0,56.0,55.0,12.3,1504.1,276.1,-0.6,0.0,1473.056,13.12,0.082,302.2
07,2022-02-04T00:30:00,1500.0,42.79,6.0312,-0.075,0.022,0.01,55.0,57.0,55.0,12.4,1504.1,264.5,-1.3,-0.5,1473.002,13.12,0.078,286.3
07,2022-02-04T01:00:00,1500.0,42.79,6.0312,-0.09,0.004,-0.008,50.0,51.0,50.0,12.4,1504.1,253.2,-1.5,0.2,1473.003,13.12,0.09,272.5
07,2022-02-04T01:30:00,1500.0,42.79,6.0312,-0.073,0.037,0.003,47.0,48.0,47.0,12.3,1504.1,270.2,-1.0,-0.3,1473.029,13.12,0.081,296.9
07,2022-02-04T02:00:00,1500.0,42.79,6.0312,-0.083,0.015,-0.017,48.0,47.0,47.0,12.3,1504.1,260.5,-1.6,0.1,1473.023,13.12,0.084,280.2
07,2022-02-04T02:30:00,1500.0,42.79,6.0312,-0.082,0.02,0.007,47.0,47.0,48.0,12.3,1504.1,262.8,-0.8,0.1,1472.994,13.12,0.084,283.7
07,2022-02-04T03:00:00,1500.0,42.79,6.0312,-0.092,0.0,-0.006,48.0,47.0,47.0,12.3,1504.1,255.7,-1.2,-0.1,1473.025,13.12,0.092,270.0
07,2022-02-04T03:30:00,1500.0,42.79,6.0312,-0.084,0.008,0.015,44.0,47.0,48.0,12.3,1504.1,256.0,-1.3,-0.1,1473.056,13.12,0.084,275.4
07,2022-02-04T04:00:00,1500.0,42.79,6.0312,-0.087,0.014,-0.009,46.0,47.0,47.0,12.3,1504.0,253.4,-0.8,0.3,1473.024,13.11,0.088,279.1
07,2022-02-04T04:30:00,1500.0,42.79,6.0312,-0.081,0.02,0.015,47.0,47.0,48.0,12.3,1504.1,254.0,-1.2,0.0,1473.005,13.12,0.083,283.9
07,2022-02-04T05:00:00,1500.0,42.79,6.0312,-0.085,0.009,0.0,49.0,49.0,48.0,12.3,1504.0,258.9,-1.1,0.0,1472.973,13.11,0.085,276.0
07,2022-02-04T05:30:00,1500.0,42.79,6.0312,-0.091,0.013,-0.001,47.0,50.0,49.0,12.3,1504.0,258.7,-1.0,-0.2,1473.085,13.11,0.091,278.1
07,2022-02-04T06:00:00,1500.0,42.79,6.0312,-0.098,0.03,-0.006,50.0,50.0,50.0,12.3,1504.0,260.4,-0.9,0.0,1473.058,13.11,0.102,287.0
07,2022-02-04T06:30:00,1500.0,42.79,6.0312,-0.093,0.013,-0.001,52.0,49.0,51.0,12.3,1504.1,260.1,-0.6,-0.2,1473.095,13.12,0.093,278.0
07,2022-02-04T07:00:00,1500.0,42.79,6.0312,-0.07,-0.006,-0.009,51.0,52.0,53.0,12.3,1504.1,253.9,-1.1,-0.1,1473.138,13.12,0.07,265.1
07,2022-02-04T07:30:00,1500.0,42.79,6.0312,-0.069,0.003,-0.013,52.0,53.0,53.0,12.3,1504.1,254.6,-1.0,0.0,1473.254,13.12,0.069,272.5
07,2022-02-04T08:00:00,1500.0,42.79,6.0312,-0.078,0.015,-0.003,58.0,58.0,57.0,12.3,1504.1,260.8,-1.3,-0.4,1473.25,13.12,0.079,280.9
07,2022-02-04T08:30:00,1500.0,42.79,6.0312,-0.089,0.004,0.005,57.0,57.0,57.0,12.3,1504.1,259.3,-1.4,-0.4,1473.354,13.12,0.089,272.6
07,2022-02-04T09:00:00,1500.0,42.79,6.0312,-0.077,-0.011,-0.007,54.0,55.0,56.0,12.3,1504.1,246.7,-1.2,0.1,1473.407,13.12,0.077,261.9
07,2022-02-04T09:30:00,1500.0,42.79,6.0312,-0.078,0.004,0.0,53.0,53.0,55.0,12.3,1504.1,256.2,-1.7,-0.1,1473.407,13.12,0.078,272.9
07,2022-02-04T10:00:00,1500.0,42.79,6.0312,-0.077,-0.01,-0.014,51.0,54.0,51.0,12.3,1504.1,246.4,-1.0,0.0,1473.46,13.12,0.077,262.6
07,2022-02-04T10:30:00,1500.0,42.79,6.0312,-0.073,-0.015,-0.008,50.0,51.0,52.0,12.3,1504.1,250.4,-1.3,-0.1,1473.428,13.12,0.074,258.4
07,2022-02-04T11:00:00,1500.0,42.79,6.0312,-0.078,-0.008,-0.006,51.0,50.0,50.0,12.3,1504.1,253.2,-1.1,0.2,1473.409,13.13,0.078,264.1
07,2022-02-04T11:30:00,1500.0,42.79,6.0312,-0.074,0.004,-0.004,57.0,56.0,57.0,12.3,1504.1,259.7,-1.1,-0.2,1473.346,13.13,0.074,273.1
07,2022-02-04T12:00:00,1500.0,42.79,6.0312,-0.082,-0.001,0.003,58.0,58.0,57.0,12.3,1504.1,258.4,-1.3,-0.1,1473.356,13.12,0.082,269.3
07,2022-02-04T12:30:00,1500.0,42.79,6.0312,-0.074,-0.001,-0.004,58.0,61.0,59.0,12.4,1504.1,259.0,-1.3,-0.2,1473.326,13.12,0.074,269.2
07,2022-02-04T13:00:00,1500.0,42.79,6.0312,-0.067,0.0,-0.006,60.0,61.0,59.0,12.3,1504.1,262.1,-1.2,0.3,1473.297,13.12,0.066,270.0
07,2022-02-04T13:30:00,1500.0,42.79,6.0312,-0.078,-0.014,-0.004,59.0,60.0,59.0,12.3,1504.1,255.2,-1.2,-0.3,1473.258,13.12,0.079,259.8
07,2022-02-04T14:00:00,1500.0,42.79,6.0312,-0.089,-0.014,0.002,59.0,60.0,61.0,12.3,1504.0,258.5,-1.1,0.1,1473.275,13.11,0.09,261.1
07,2022-02-04T14:30:00,1500.0,42.79,6.0312,-0.076,-0.027,-0.003,60.0,60.0,59.0,12.3,1504.0,250.0,-1.6,-0.3,1473.286,13.11,0.08,250.4
07,2022-02-04T15:00:00,1500.0,42.79,6.0312,-0.082,-0.021,-0.018,59.0,61.0,60.0,12.3,1504.0,247.3,-1.0,0.1,1473.245,13.11,0.084,255.6
07,2022-02-04T15:30:00,1500.0,42.79,6.0312,-0.069,-0.012,-0.004,60.0,59.0,61.0,12.3,1504.0,249.6,-1.2,-0.1,1473.227,13.11,0.07,260.1
07,2022-02-04T16:00:00,1500.0,42.79,6.0312,-0.079,-0.019,-0.013,58.0,57.0,58.0,12.3,1504.0,250.6,-1.7,0.0,1473.184,13.11,0.081,256.5
07,2022-02-04T16:30:00,1500.0,42.79,6.0312,-0.082,-0.017,-0.01,55.0,57.0,54.0,12.3,1504.0,253.7,-1.3,-0.1,1473.142,13.11,0.083,258.3
07,2022-02-04T17:00:00,1500.0,42.79,6.0312,-0.077,-0.009,0.003,58.0,58.0,57.0,12.3,1504.0,253.7,-1.6,-0.3,1473.155,13.11,0.077,263.3
07,2022-02-04T17:30:00,1500.0,42.79,6.0312,-0.073,-0.014,-0.015,58.0,58.0,57.0,12.3,1504.0,257.1,-1.2,0.0,1473.17,13.11,0.074,259.1
07,2022-02-04T18:00:00,1500.0,42.79,6.0312,-0.071,0.001,-0.012,56.0,54.0,55.0,12.3,1504.0,261.5,-1.1,-0.3,1473.156,13.11,0.071,270.8
07,2022-02-04T18:30:00,1500.0,42.79,6.0312,-0.073,0.002,-0.007,50.0,52.0,51.0,12.3,1504.0,260.8,-1.2,-0.3,1473.132,13.11,0.073,271.6
07,2022-02-04T19:00:00,1500.0,42.79,6.0312,-0.076,-0.007,-0.012,51.0,52.0,50.0,12.3,1504.1,261.0,-1.0,0.0,1473.128,13.12,0.076,264.7
07,2022-02-04T19:30:00,1500.0,42.79,6.0312,-0.082,-0.003,0.004,51.0,50.0,49.0,12.3,1504.1,259.6,-1.1,-0.1,1473.108,13.12,0.082,267.9
07,2022-02-04T20:00:00,1500.0,42.79,6.0312,-0.079,-0.015,0.02,51.0,51.0,50.0,12.3,1504.1,254.3,-1.3,0.0,1473.103,13.12,0.08,259.2
07,2022-02-04T20:30:00,1500.0,42.79,6.0312,-0.073,-0.007,0.007,50.0,50.0,50.0,12.3,1504.1,252.0,-1.1,-0.2,1473.058,13.12,0.073,264.5
07,2022-02-04T21:00:00,1500.0,42.79,6.0312,-0.094,-0.004,-0.002,50.0,51.0,49.0,12.3,1504.1,256.8,-0.9,0.0,1473.01,13.12,0.094,267.6
